Wendover, UT

9:26 AM MDT on June 26, 2017 (GMT -0600)
Wendover

Weather History for KENV - December, 2013

Change the Weather History Date:

Friday, December 20, 2013

  Actual Average Record
Temperature  
Mean Temperature 20 °F -  
Max Temperature 26 °F 31 °F 56 °F (1934)
Min Temperature 14 °F 16 °F 1 °F (1990)
Degree Days  
Heating Degree Days 45    
Moisture  
Dew Point 14 °F    
Average Humidity 76    
Maximum Humidity 93    
Minimum Humidity 64    
Precipitation  
Precipitation 0.00 in - - ()
Sea Level Pressure  
Sea Level Pressure 29.93 in    
Wind  
Wind Speed 0 mph (North)    
Max Wind Speed 0 mph    
Max Gust Speed -    
Visibility 10 miles    
Events      
Averages and records for this station are not official NWS values.
T = Trace of Precipitation, MM = Missing Value Source: NWS Daily Summary

Daily Weather History Graph

Daily Weather History Graph

Search for Another Location

Airport or City:

Trip Planner

Search our weather history database for the weather conditions in past years. The results will help you decide how hot, cold, wet, or windy it might be!

Date:

Astronomy

Dec. 20, 2013 Rise Set
Actual Time 7:56 AM MST 5:11 PM MST
Civil Twilight 7:25 AM MST 5:42 PM MST
Nautical Twilight 6:50 AM MST 6:17 PM MST
Astronomical Twilight 6:17 AM MST 6:50 PM MST
Moon 8:37 PM MST (12/20) 9:51 AM MST (12/20)
Length of Visible Light 10h 17m
Length of Day
9h 15m
Waning Gibbous, 90% of the Moon is Illuminated
Dec 20
Waning Gibbous
Dec 25
Last Quarter
Jan 1
New
Jan 7
First Quarter
Jan 15
Full

Hourly Weather History & Observations

Time (MST) Temp. Dew Point Humidity Pressure Visibility Wind Dir Wind Speed Gust Speed Precip Events Conditions
12:15 AM 24.8 °F 17.6 °F 74% 29.92 in 10.0 mi Calm Calm - N/A   Clear
12:35 AM 26.6 °F 15.8 °F 64% 29.92 in 10.0 mi Calm Calm - N/A   Clear
12:55 AM 23.0 °F 14.0 °F 68% 29.93 in 10.0 mi Calm Calm - N/A   Clear
1:15 AM 23.0 °F 14.0 °F 68% 29.93 in 10.0 mi Calm Calm - N/A   Clear
1:35 AM 23.0 °F 15.8 °F 74% 29.94 in 10.0 mi Calm Calm - N/A   Clear
1:55 AM 21.2 °F 15.8 °F 80% 29.94 in 10.0 mi Calm Calm - N/A   Clear
2:15 AM 21.2 °F 14.0 °F 74% 29.94 in 10.0 mi Calm Calm - N/A   Clear
2:35 AM 19.4 °F 12.2 °F 74% 29.94 in 10.0 mi Calm Calm - N/A   Clear
2:55 AM 17.6 °F 8.6 °F 68% 29.95 in 10.0 mi Calm Calm - N/A   Clear
3:15 AM 17.6 °F 12.2 °F 79% 29.95 in 10.0 mi Calm Calm - N/A   Clear
3:35 AM 17.6 °F 15.8 °F 93% 29.95 in 10.0 mi Calm Calm - N/A   Clear
3:55 AM 17.6 °F 10.4 °F 73% 29.94 in 10.0 mi Calm Calm - N/A   Clear
4:15 AM 17.6 °F 12.2 °F 79% 29.94 in 10.0 mi Calm Calm - N/A   Clear
4:35 AM 19.4 °F 14.0 °F 80% 29.94 in 10.0 mi Calm Calm - N/A   Clear
4:55 AM 19.4 °F 15.8 °F 86% 29.93 in 10.0 mi Calm Calm - N/A   Clear
5:15 AM 17.6 °F 12.2 °F 79% 29.93 in 10.0 mi Calm Calm - N/A   Clear
5:35 AM 17.6 °F 10.4 °F 73% 29.93 in 10.0 mi Calm Calm - N/A   Clear
5:55 AM 17.6 °F 12.2 °F 79% 29.93 in 10.0 mi Calm Calm - N/A   Clear
6:15 AM 17.6 °F 12.2 °F 79% 29.93 in 10.0 mi Calm Calm - N/A   Clear
6:35 AM 15.8 °F 10.4 °F 79% 29.93 in 10.0 mi Calm Calm - N/A   Clear
6:55 AM 15.8 °F 10.4 °F 79% 29.95 in 10.0 mi Calm Calm - N/A   Clear
7:15 AM 15.8 °F 10.4 °F 79% 29.95 in 10.0 mi Calm Calm - N/A   Clear
7:35 AM 14.0 °F 8.6 °F 79% 29.95 in 10.0 mi Calm Calm - N/A   Clear
7:55 AM 15.8 °F 10.4 °F 79% 29.95 in 10.0 mi Calm Calm - N/A   Clear
8:15 AM 15.8 °F 10.4 °F 79% 29.95 in 10.0 mi Calm Calm - N/A   Clear
8:35 AM 15.8 °F 10.4 °F 79% 29.96 in 10.0 mi Calm Calm - N/A   Clear
8:55 AM 17.6 °F 12.2 °F 79% 29.96 in 10.0 mi Calm Calm - N/A   Clear
9:15 AM 17.6 °F 12.2 °F 79% 29.97 in 10.0 mi Calm Calm - N/A   Clear
9:35 AM 17.6 °F 12.2 °F 79% 29.98 in 10.0 mi Calm Calm - N/A   Clear
9:55 AM 19.4 °F 12.2 °F 74% 29.97 in 10.0 mi Calm Calm - N/A   Clear
10:15 AM 19.4 °F 14.0 °F 80% 29.99 in 10.0 mi Calm Calm - N/A   Clear
10:35 AM 19.4 °F 12.2 °F 74% 30.00 in 10.0 mi Calm Calm - N/A   Clear
10:55 AM 19.4 °F 14.0 °F 80% 29.99 in 10.0 mi Calm Calm - N/A   Clear
11:15 AM 19.4 °F 12.2 °F 74% 29.99 in 10.0 mi Calm Calm - N/A   Clear
11:35 AM 19.4 °F 14.0 °F 80% 30.00 in 10.0 mi Calm Calm - N/A   Clear
11:55 AM 21.2 °F 14.0 °F 74% 30.00 in 10.0 mi North - - N/A   Clear
12:15 PM 21.2 °F 14.0 °F 74% 29.98 in 10.0 mi North - - N/A   Clear
12:35 PM 23.0 °F 15.8 °F 74% 29.97 in 10.0 mi North - - N/A   Clear
12:55 PM 23.0 °F 15.8 °F 74% 29.96 in 10.0 mi North - - N/A   Clear
1:15 PM 23.0 °F 15.8 °F 74% 29.96 in 10.0 mi North - - N/A   Clear
1:35 PM 23.0 °F 14.0 °F 68% 29.95 in 10.0 mi North - - N/A   Clear
1:55 PM 23.0 °F 14.0 °F 68% 29.95 in 10.0 mi North - - N/A   Clear
2:15 PM 23.0 °F 14.0 °F 68% 29.94 in 10.0 mi North - - N/A   Clear
2:35 PM 23.0 °F 14.0 °F 68% 29.94 in 10.0 mi North - - N/A   Clear
2:55 PM 23.0 °F 14.0 °F 68% 29.94 in 10.0 mi North - - N/A   Clear
3:15 PM 23.0 °F 15.8 °F 74% 29.94 in 10.0 mi North - - N/A   Clear
3:35 PM 23.0 °F 15.8 °F 74% 29.94 in 10.0 mi North - - N/A   Clear
3:55 PM 23.0 °F 15.8 °F 74% 29.95 in 10.0 mi North - - N/A   Clear
4:15 PM 21.2 °F 15.8 °F 80% 29.94 in 10.0 mi North - - N/A   Clear
4:35 PM 21.2 °F 14.0 °F 74% 29.95 in 10.0 mi North - - N/A   Clear
4:55 PM 21.2 °F 14.0 °F 74% 29.94 in 10.0 mi North - - N/A   Clear
5:15 PM 21.2 °F 14.0 °F 74% 29.93 in 10.0 mi North - - N/A   Clear
5:35 PM 21.2 °F 12.2 °F 68% 29.92 in 10.0 mi North - - N/A   Clear
5:55 PM 21.2 °F 12.2 °F 68% 29.92 in 10.0 mi North - - N/A   Scattered Clouds
6:15 PM 21.2 °F 14.0 °F 74% 29.92 in 10.0 mi North - - N/A   Scattered Clouds
6:35 PM 21.2 °F 15.8 °F 80% 29.92 in 10.0 mi North - - N/A   Partly Cloudy
6:55 PM 21.2 °F 15.8 °F 80% 29.92 in 10.0 mi North - - N/A   Scattered Clouds
7:15 PM 21.2 °F 15.8 °F 80% 29.92 in 10.0 mi North - - N/A   Mostly Cloudy
7:35 PM 23.0 °F 15.8 °F 74% 29.92 in 10.0 mi North - - N/A   Scattered Clouds
7:55 PM 23.0 °F 15.8 °F 74% 29.92 in 10.0 mi North - - N/A   Mostly Cloudy
8:15 PM 23.0 °F 15.8 °F 74% 29.90 in 10.0 mi North - - N/A   Mostly Cloudy
8:35 PM 23.0 °F 15.8 °F 74% 29.90 in 10.0 mi North - - N/A   Partly Cloudy
8:55 PM 23.0 °F 15.8 °F 74% 29.89 in 10.0 mi North - - N/A   Clear
9:15 PM 21.2 °F 15.8 °F 80% 29.88 in 10.0 mi North - - N/A   Clear
9:35 PM 21.2 °F 15.8 °F 80% 29.87 in 10.0 mi North - - N/A   Mostly Cloudy
9:55 PM 21.2 °F 15.8 °F 80% 29.85 in 10.0 mi North - - N/A   Overcast
10:15 PM 21.2 °F 15.8 °F 80% 29.83 in 10.0 mi North - - N/A   Mostly Cloudy
10:35 PM 21.2 °F 15.8 °F 80% 29.83 in 10.0 mi North - - N/A   Scattered Clouds
10:55 PM 21.2 °F 15.8 °F 80% 29.84 in 10.0 mi North - - N/A   Mostly Cloudy
11:15 PM 21.2 °F 15.8 °F 80% 29.84 in 6.0 mi North - - N/A   Overcast
11:35 PM 21.2 °F 15.8 °F 80% 29.84 in 2.5 mi North - - N/A   Overcast
11:55 PM 21.2 °F 15.8 °F 80% 29.82 in 3.0 mi North - - N/A   Mostly Cloudy